Location: Astronomy Club of Akron Observatory
(40.9700°N, 81.5606°W)
Time: 19:00:03
(UTC-05:00)

ATLAS 2AS CENTAUR R/B - Visible Passes

Search period start: 21 December 2014 00:00
Search period end: 31 December 2014 00:00
Orbit: 915 x 1297 km, 63.7° (Epoch: 16 December)

Date Brightness Start Highest point End Pass type
(mag) Time Alt. Az. Time Alt. Az. Time Alt. Az.
21 Dec 4.8 18:45:42 10° NW 18:52:40 33° WSW 18:59:23 10° S visible
22 Dec 5.9 06:49:19 10° SE 06:53:09 15° ESE 06:57:08 10° ENE visible
22 Dec 4.0 18:00:28 10° NW 18:08:13 51° WSW 18:15:38 10° S visible
23 Dec 5.9 19:09:11 10° WNW 19:13:20 15° WSW 19:17:24 10° SW visible
24 Dec 4.8 07:07:33 10° S 07:13:47 35° ESE 07:20:30 10° NE visible
24 Dec 5.4 18:22:53 10° NW 18:29:07 25° WSW 18:35:08 10° SSW visible
25 Dec 5.5 06:24:26 10° SSE 06:29:30 21° ESE 06:34:51 10° ENE visible
25 Dec 4.7 17:37:25 10° NW 17:44:45 40° WSW 17:51:48 10° S visible
26 Dec 6.0 05:42:56 10° ESE 05:45:21 12° E 05:47:50 10° E visible
26 Dec 6.4 18:48:40 10° W 18:49:38 10° W 18:50:37 10° WSW visible
27 Dec 4.1 06:43:37 10° S 06:50:16 45° ESE 06:57:30 10° NE visible
27 Dec 5.9 18:00:21 10° WNW 18:05:30 19° WSW 18:10:32 10° SW visible
28 Dec 4.9 06:00:03 10° SSE 06:05:53 29° ESE 06:12:09 10° NE visible
29 Dec 5.5 05:17:21 10° SE 05:21:40 17° ESE 05:26:10 10° ENE visible
29 Dec 3.0 07:04:19 10° SSW 07:11:27 88° ESE 07:19:18 10° NE visible
30 Dec 3.5 06:19:53 10° SSW 06:26:48 59° ESE 06:34:23 10° NE visible
30 Dec 6.1 17:38:22 10° WNW 17:41:51 13° WSW 17:45:16 10° SW visible
